| time (UTC) | temp C | wind direction | speed KPH | gust KPH | rain 1hr cm | rain 24hr cm | rain mn cm | humidity % | barometer mb |
| 20260505111557 | 9 | 360 | 4.8 | 12.9 | 0.00 | 0.81 | 0.81 | 80 | 1008.0 |
| 20260505110108 | 9 | 360 | 8.0 | 20.9 | 0.00 | 0.81 | 0.81 | 81 | 1007.3 |
| 20260505101541 | 9 | 360 | 4.8 | 14.5 | 0.00 | 0.81 | 0.81 | 83 | 1007.9 |
| 20260505100052 | 9 | 360 | 11.3 | 20.9 | 0.00 | 0.81 | 0.81 | 85 | 1007.2 |
| 20260505094521 | 9 | 360 | 4.8 | 14.5 | 0.00 | 0.81 | 0.81 | 85 | 1007.6 |
| 20260505093108 | 9 | 360 | 6.4 | 14.5 | 0.00 | 0.81 | 0.81 | 85 | 1007.4 |
| 20260505091527 | 9 | 360 | 8.0 | 16.1 | 0.00 | 0.81 | 0.81 | 85 | 1006.8 |
| 20260505090010 | 9 | 360 | 8.0 | 27.4 | 0.00 | 0.81 | 0.81 | 84 | 1006.2 |
| 20260505084521 | 10 | 360 | 14.5 | 27.4 | 0.15 | 0.81 | 0.81 | 85 | 1004.8 |
| 20260505083115 | 10 | 360 | 12.9 | 30.6 | 0.25 | 0.81 | 0.81 | 88 | 1003.8 |
| 20260505081535 | 10 | 360 | 6.4 | 25.7 | 0.46 | 0.81 | 0.81 | 90 | 1004.9 |
| 20260505080050 | 10 | 360 | 14.5 | 25.7 | 0.76 | 0.81 | 0.81 | 90 | 1005.5 |
| 20260505074552 | 10 | 360 | 12.9 | 20.9 | 0.66 | 0.66 | 0.66 | 89 | 1007.5 |
| 20260505073059 | 11 | 360 | 12.9 | 24.1 | 0.56 | 0.56 | 0.56 | 88 | 1007.7 |
| 20260505071530 | 12 | 360 | 16.1 | 29.0 | 0.36 | 0.36 | 0.36 | 85 | 1006.7 |
| 20260505070100 | 13 | 360 | 16.1 | 35.4 | 0.05 | 0.05 | 0.05 | 80 | 1005.3 |
| 20260505064511 | 16 | 360 | 20.9 | 35.4 | 0.00 | 0.00 | 0.00 | 63 | 1004.3 |
| 20260505063151 | 19 | 360 | 25.7 | 43.5 | 0.00 | 0.00 | 0.00 | 61 | 1003.3 |
| 20260505061540 | 19 | 360 | 1.6 | 9.7 | 0.00 | 0.00 | 0.00 | 75 | 1003.1 |
| 20260505060041 | 19 | 360 | 1.6 | 6.4 | 0.00 | 0.00 | 0.00 | 74 | 1002.2 |
| 20260505054549 | 19 | 360 | 4.8 | 8.0 | 0.00 | 0.00 | 0.00 | 75 | 1002.4 |
| 20260505053018 | 19 | 360 | 1.6 | 6.4 | 0.00 | 0.00 | 0.00 | 75 | 1002.4 |
| 20260505051508 | 19 | 360 | 1.6 | 8.0 | 0.00 | 0.00 | 0.00 | 75 | 1001.9 |
| 20260505041506 | 20 | 360 | 4.8 | 9.7 | 0.00 | 0.00 | 0.00 | 73 | 1002.4 |
| 20260505040105 | 20 | 360 | 3.2 | 6.4 | 0.00 | 0.00 | 0.00 | 73 | 1002.8 |
| 20260505034539 | 20 | 360 | 3.2 | 8.0 | 0.00 | 0.00 | 0.00 | 73 | 1002.7 |
| 20260505033010 | 20 | 360 | 3.2 | 9.7 | 0.00 | 0.00 | 0.00 | 72 | 1002.6 |
| 20260505031523 | 21 | 360 | 1.6 | 8.0 | 0.00 | 0.00 | 0.00 | 72 | 1002.6 |
| 20260505030049 | 21 | 360 | 6.4 | 16.1 | 0.00 | 0.00 | 0.00 | 71 | 1002.4 |
| 20260505024608 | 21 | 360 | 4.8 | 12.9 | 0.00 | 0.00 | 0.00 | 70 | 1002.3 |
| 20260505023048 | 22 | 360 | 4.8 | 9.7 | 0.00 | 0.00 | 0.00 | 69 | 1002.1 |
| 20260505021516 | 22 | 360 | 1.6 | 4.8 | 0.00 | 0.00 | 0.00 | 68 | 1002.0 |
| 20260505020110 | 22 | 360 | 1.6 | 4.8 | 0.00 | 0.00 | 0.00 | 66 | 1001.8 |
| 20260505014513 | 23 | 360 | 3.2 | 8.0 | 0.00 | 0.00 | 0.00 | 66 | 1001.4 |
| 20260505013055 | 23 | 360 | 1.6 | 9.7 | 0.00 | 0.00 | 0.00 | 63 | 1001.2 |
| 20260505011601 | 23 | 360 | 1.6 | 6.4 | 0.00 | 0.00 | 0.00 | 61 | 1000.9 |
| 20260505010113 | 24 | 360 | 1.6 | 6.4 | 0.00 | 0.00 | 0.00 | 60 | 1000.6 |
| 20260505004631 | 25 | 360 | 1.6 | 4.8 | 0.00 | 0.00 | 0.00 | 59 | 1000.4 |
| 20260505003111 | 25 | 360 | 1.6 | 4.8 | 0.00 | 0.00 | 0.00 | 58 | 1000.3 |
| 20260505001539 | 26 | 360 | 1.6 | 4.8 | 0.00 | 0.00 | 0.00 | 57 | 1000.3 |
| 20260505000101 | 26 | 182 | 1.6 | 4.8 | 0.00 | 0.00 | 0.00 | 55 | 1000.3 |
| 20260504234609 | 26 | 360 | 1.6 | 8.0 | 0.00 | 0.00 | 0.00 | 53 | 1000.3 |
| 20260504233019 | 26 | 360 | 1.6 | 8.0 | 0.00 | 0.00 | 0.00 | 51 | 1000.4 |
| 20260504231526 | 27 | 360 | 1.6 | 4.8 | 0.00 | 0.00 | 0.00 | 53 | 1000.5 |
| 20260504224543 | 27 | 205 | 3.2 | 12.9 | 0.00 | 0.00 | 0.00 | 51 | 1000.4 |
| 20260504223017 | 27 | 360 | 3.2 | 14.5 | 0.00 | 0.00 | 0.00 | 51 | 1000.3 |
| 20260504221647 | 27 | 360 | 4.8 | 20.9 | 0.00 | 0.00 | 0.00 | 51 | 1000.4 |
| 20260504220004 | 27 | 360 | 3.2 | 12.9 | 0.00 | 0.00 | 0.00 | 50 | 1000.4 |
| 20260504214518 | 27 | 360 | 1.6 | 8.0 | 0.00 | 0.00 | 0.00 | 51 | 1000.6 |
| 20260504213101 | 27 | 360 | 6.4 | 20.9 | 0.00 | 0.00 | 0.00 | 46 | 1000.7 |
| 20260504211532 | 28 | 360 | 4.8 | 16.1 | 0.00 | 0.00 | 0.00 | 51 | 1000.7 |
| 20260504210048 | 28 | 360 | 8.0 | 16.1 | 0.00 | 0.00 | 0.00 | 48 | 1000.8 |
| 20260504204502 | 28 | 360 | 1.6 | 17.7 | 0.00 | 0.00 | 0.00 | 50 | 1000.9 |
| 20260504203007 | 28 | 360 | 9.7 | 22.5 | 0.00 | 0.00 | 0.00 | 47 | 1001.0 |
| 20260504201527 | 28 | 360 | 4.8 | 16.1 | 0.00 | 0.00 | 0.00 | 48 | 1001.2 |
| 20260504200044 | 28 | 360 | 6.4 | 16.1 | 0.00 | 0.00 | 0.00 | 48 | 1001.4 |
| 20260504194604 | 27 | 360 | 6.4 | 19.3 | 0.00 | 0.00 | 0.00 | 49 | 1001.5 |
| 20260504193025 | 27 | 360 | 8.0 | 20.9 | 0.00 | 0.00 | 0.00 | 45 | 1001.7 |
| 20260504191512 | 27 | 360 | 9.7 | 25.7 | 0.00 | 0.00 | 0.00 | 46 | 1001.8 |
| 20260504190046 | 27 | 360 | 4.8 | 17.7 | 0.00 | 0.00 | 0.00 | 49 | 1001.8 |
| 20260504184532 | 27 | 161 | 4.8 | 12.9 | 0.00 | 0.00 | 0.00 | 53 | 1001.9 |
| 20260504183007 | 26 | 360 | 6.4 | 16.1 | 0.00 | 0.00 | 0.00 | 52 | 1002.1 |
| 20260504181519 | 26 | 360 | 6.4 | 19.3 | 0.00 | 0.00 | 0.00 | 53 | 1002.2 |
| 20260504180103 | 25 | 360 | 4.8 | 17.7 | 0.00 | 0.00 | 0.00 | 53 | 1002.4 |
| 20260504174538 | 25 | 360 | 11.3 | 27.4 | 0.00 | 0.00 | 0.00 | 52 | 1002.5 |
| 20260504173103 | 25 | 360 | 6.4 | 16.1 | 0.00 | 0.00 | 0.00 | 51 | 1002.5 |
| 20260504171538 | 25 | 360 | 8.0 | 24.1 | 0.00 | 0.00 | 0.00 | 54 | 1002.6 |
| 20260504170107 | 25 | 360 | 4.8 | 25.7 | 0.00 | 0.00 | 0.00 | 54 | 1002.8 |
| 20260504140113 | 19 | 360 | 9.7 | 29.0 | 0.00 | 0.00 | 0.00 | 59 | 1003.1 |